N6EQ Weather Reports


Display with metric or nautical units.
time (UTC)temp
F
wind
direction
speed
MPH
gust
MPH
rain 1hr
in
rain 24hr
in
rain mn
in
humidity
%
barometer
mb
20260503010023 90 200 9.0 15.0 0.00 0.00 0.00 9 947.9
20260503004521 90 4.0 9.0 0.00 0.00 0.00 9 948.0
20260503003018 90 219 4.0 11.0 0.00 0.00 0.00 9 948.0
20260503001518 90 244 6.0 12.0 0.00 0.00 0.00 9 948.1
20260503000017 91 215 7.0 11.0 0.00 0.00 0.00 9 948.2
20260502234515 90 238 6.0 14.0 0.00 0.00 0.00 9 948.2
20260502233028 90 236 5.0 13.0 0.00 0.00 0.00 8 948.2
20260502231514 91 206 6.0 13.0 0.00 0.00 0.00 8 948.2
20260502230012 91 231 5.0 9.0 0.00 0.00 0.00 8 948.3
20260502224510 91 221 7.0 16.0 0.00 0.00 0.00 8 948.4
20260502223009 91 250 7.0 14.0 0.00 0.00 0.00 8 948.7
20260502221509 90 262 3.0 14.0 0.00 0.00 0.00 8 949.0
20260502220005 91 245 7.0 16.0 0.00 0.00 0.00 8 949.3
20260502214601 90 207 4.0 16.0 0.00 0.00 0.00 8 949.5
20260502213059 91 271 11.0 16.0 0.00 0.00 0.00 7 949.7
20260502211556 90 272 10.0 15.0 0.00 0.00 0.00 8 950.1
20260502210106 90 242 7.0 14.0 0.00 0.00 0.00 8 950.2
20260502204556 90 244 5.0 16.0 0.00 0.00 0.00 8 950.5
20260502203053 90 136 5.0 11.0 0.00 0.00 0.00 8 950.7
20260502201548 90 255 6.0 11.0 0.00 0.00 0.00 8 950.8
20260502200051 89 4.0 11.0 0.00 0.00 0.00 8 951.1
20260502194544 89 5.0 13.0 0.00 0.00 0.00 9 951.3
20260502193046 88 209 3.0 9.0 0.00 0.00 0.00 8 951.5
20260502191544 88 6.0 14.0 0.00 0.00 0.00 8 951.7
20260502190044 87 332 4.0 16.0 0.00 0.00 0.00 9 951.9
20260502184540 87 319 9.0 15.0 0.00 0.00 0.00 10 952.1
20260502183038 87 23 10.0 16.0 0.00 0.00 0.00 11 952.3
20260502181543 86 326 6.0 16.0 0.00 0.00 0.00 11 952.4
20260502163030 80 355 11.0 20.0 0.00 0.00 0.00 13 953.0
20260502161517 79 9.0 18.0 0.00 0.00 0.00 13 953.0
20260502151517 76 7.0 17.0 0.00 0.00 0.00 14 953.0
20260502123049 72 43 4.0 12.0 0.00 0.00 0.00 15 951.8
20260502121541 73 30 6.0 12.0 0.00 0.00 0.00 14 951.6
20260502114537 73 67 1.0 9.0 0.00 0.00 0.00 14 951.3
20260502113037 74 34 3.0 10.0 0.00 0.00 0.00 14 951.4
20260502111539 73 76 0.0 9.0 0.00 0.00 0.00 14 951.3
20260502110035 73 29 0.0 4.0 0.00 0.00 0.00 14 951.4
20260502104537 73 27 0.0 7.0 0.00 0.00 0.00 14 951.4
20260502103033 73 28 0.0 4.0 0.00 0.00 0.00 14 951.3
20260502101532 73 30 0.0 6.0 0.00 0.00 0.00 14 951.3
20260502091528 74 73 0.0 2.0 0.00 0.00 0.00 13 951.3
20260502071516 76 29 0.0 2.0 0.00 0.00 0.00 13 951.1
20260502070013 77 338 0.0 1.0 0.00 0.00 0.00 12 951.0
20260502064512 77 27 0.0 1.0 0.00 0.00 0.00 12 950.9
20260502063012 77 330 0.0 1.0 0.00 0.00 0.00 12 950.8
20260502061519 79 359 0.0 4.0 0.00 0.00 0.00 12 950.7
20260502060011 78 17 1.0 4.0 0.00 0.00 0.00 13 950.5
20260502054510 78 339 0.0 3.0 0.00 0.00 0.00 13 950.5
20260502053010 77 30 0.0 2.0 0.00 0.00 0.00 12 950.6
20260502051520 78 0.0 1.0 0.00 0.00 0.00 12 950.6
20260502050008 79 27 0.0 1.0 0.00 0.00 0.00 12 950.5
20260502044507 80 82 0.0 2.0 0.00 0.00 0.00 11 950.3
20260502043007 80 70 0.0 2.0 0.00 0.00 0.00 11 950.1
20260502041517 81 0.0 3.0 0.00 0.00 0.00 11 950.0
20260502040012 81 82 0.0 2.0 0.00 0.00 0.00 12 949.8
20260502034507 82 80 0.0 2.0 0.00 0.00 0.00 12 949.8
20260502033004 83 0.0 6.0 0.00 0.00 0.00 12 949.5
20260502031503 83 1.0 11.0 0.00 0.00 0.00 12 949.3
20260502030001 84 29 6.0 15.0 0.00 0.00 0.00 11 949.1
20260502024607 85 44 10.0 19.0 0.00 0.00 0.00 11 948.9
20260502023100 85 27 10.0 15.0 0.00 0.00 0.00 11 948.7
20260502021605 86 25 12.0 19.0 0.00 0.00 0.00 11 948.7
20260502020058 87 29 5.0 16.0 0.00 0.00 0.00 11 948.3
20260502014558 87 51 12.0 19.0 0.00 0.00 0.00 11 948.2
20260502013057 88 335 14.0 22.0 0.00 0.00 0.00 11 948.1
20260502011557 88 12 9.0 19.0 0.00 0.00 0.00 11 948.0